Estació municipal de Aiguafreda (Osona, P.N. del Montseny)

Consulta les dades en temps real de l'estació municipal de Aiguafreda





Hora UTC 03:45
Temperatura 19.6 ºC
Sòl 15 cm 17.9 ºC
Humitat 66.0 %
Pressió 1021.6 hPa
Pluja 0.0 mm
Velocitat vent 0.0 km/h
Direcció vent NNE

Dades diàries 2026-09-06



Hora UTC (hivern +1h; estiu +2h)
Temperatura (ºC) Humitat (%) Pressió (hPa) Velocitat vent (km/h) Precipitació (mm)
Hora UTC Aire Sòl 15 cm Humitat Pressió Vel. Dir. Vel. Max Dir. Intent. màx 5 min.
00:05 20.6 19.2 64.5 1022.3 0.0 NNE 0.0 NNE 0.0
00:10 20.6 19.1 64.9 1022.3 0.0 NNE 0.0 NNE 0.0
00:15 20.5 19.0 64.9 1022.3 0.0 NNE 0.0 NNE 0.0
00:20 20.4 19.0 65.2 1022.2 0.0 NNE 0.0 NNE 0.0
00:25 20.4 18.9 65.0 1022.2 0.0 NNE 0.0 NNW 0.0
00:30 20.4 18.9 64.9 1022.2 0.0 NNE 0.0 WSW 0.0
00:35 20.3 18.8 65.2 1022.2 0.0 NNE 0.0 WSW 0.0
00:40 20.2 18.8 65.3 1022.1 0.0 NNE 0.0 NE 0.0
00:45 20.2 18.7 65.4 1022.1 0.0 NNE 0.0 NE 0.0
00:50 20.2 18.7 64.9 1022.1 0.0 NNE 0.0 SE 0.0
00:55 20.2 18.7 64.7 1022.1 0.0 NNE 0.0 SSW 0.0
01:00 20.1 18.6 64.5 1022.1 0.0 NNE 0.0 SSW 0.0
01:05 20.1 18.5 64.6 1022.1 0.0 NNE 0.0 SSW 0.0
01:10 20.0 18.4 63.9 1022.1 0.0 NNE 0.0 SSW 0.0
01:15 19.9 18.4 64.4 1022.0 0.0 NNE 0.0 SSW 0.0
01:20 19.9 18.3 64.0 1022.0 0.0 NNE 0.0 SSE 0.0
01:25 19.8 18.2 63.8 1022.0 0.0 NNE 0.0 SSE 0.0
01:30 19.7 18.2 63.9 1022.0 0.0 NNE 0.0 SE 0.0
01:35 19.7 18.1 64.4 1021.9 0.0 NNE 0.0 N 0.0
01:40 19.6 18.1 64.6 1021.9 0.0 NNE 0.0 N 0.0
01:45 19.6 18.1 64.7 1021.9 0.0 NNE 0.0 N 0.0
01:50 19.6 18.1 64.8 1021.9 0.0 NNE 0.0 ESE 0.0
01:55 19.6 18.0 65.1 1021.9 0.0 NNE 0.0 NNW 0.0
02:00 19.6 18.0 65.2 1021.9 0.0 NNE 0.0 NNW 0.0
02:05 19.6 18.0 65.4 1021.9 0.0 NNE 0.0 NNW 0.0
02:10 19.6 18.0 65.5 1021.9 0.0 NNE 0.0 NNW 0.0
02:15 19.6 18.0 65.7 1021.9 0.0 NNE 0.0 NNW 0.0
02:20 19.6 18.0 65.8 1021.9 0.0 NNE 0.0 NNW 0.0
02:25 19.6 17.9 66.1 1021.9 0.0 NNE 0.0 NNW 0.0
02:30 19.6 17.9 66.2 1021.9 0.0 NNE 0.0 NNW 0.0
02:35 19.5 18.0 66.1 1021.8 0.0 NNE 0.0 NNW 0.0
02:40 19.5 18.0 66.3 1021.8 0.0 NNE 0.0 SW 0.0
02:45 19.5 18.1 65.7 1021.8 0.0 NNE 0.0 S 0.0
02:50 19.6 18.1 65.4 1021.8 0.0 NNE 0.0 SE 0.0
02:55 19.6 18.0 65.4 1021.8 0.0 NNE 0.0 S 0.0
03:00 19.5 17.9 65.4 1021.8 0.0 NNE 0.0 S 0.0
03:05 19.4 17.9 65.9 1021.8 0.0 NNE 0.0 S 0.0
03:10 19.5 17.9 66.4 1021.8 0.0 NNE 0.0 S 0.0
03:15 19.6 18.1 66.5 1021.7 0.0 NNE 0.0 SE 0.0
03:20 19.8 18.1 66.2 1021.7 0.0 NNE 0.0 S 0.0
03:25 19.8 18.2 65.3 1021.7 0.0 NNE 0.0 WSW 0.0
03:30 19.8 18.3 64.8 1021.7 0.1 S 3.4 S 0.0
03:35 19.7 18.1 65.0 1021.6 0.0 NNE 0.0 S 0.0
03:40 19.6 18.0 65.5 1021.6 0.0 NNE 0.0 S 0.0
03:45 19.6 17.9 66.0 1021.6 0.0 NNE 0.0 WSW 0.0
Màxima 20.6 19.2 66.5 1022.3 0.1 S 3.4 S 0.0
Mínima 19.4 17.9 63.8 1021.6
Total 0.0